User: anonymous   Login
Location: Godiavel Galaoual
(15.2485°N, 12.6604°W)
Time: 02:28:32
(UTC+00:00)
Language:

XW-2F - Orbit

View from above orbital plane
View from above orbital plane
View from above satellite
View from above satellite

Ground track
Ground track

The orbit data is extracted from the following two-line orbital elements,

1 40910U 15049M   21206.79786568  .00002203  00000-0  10774-3 0  9999
2 40910  97.4714 211.6183 0015431  41.7997 132.9707 15.19182792323542
Epoch (UTC): 25 July 2021 19:08:55
Eccentricity: 0.0015431
inclination: 97.4714°
perigee height: 497 km
apogee height: 519 km
right ascension of ascending node: 211.6183°
argument of perigee: 41.7997°
revolutions per day: 15.19182792
mean anomaly at epoch: 132.9707°
orbit number at epoch: 32354

The dashed part of the orbit path shows where the satellite is in the earth's shadow,  

DLR